Temp
63 63 64 64 63 64 64 64 63 63 63 63 63 63 63 63 64 69 72 78 76 70 72 77 78 76 76 72 71 70 67 63 64 61 70 72 71 73 75 75 73 76 78 80 70
62 62 63 63 63 63 63 63 63 63 62 62 63 63 63 63 69 70 76 72 71 70 78 77 74 74 74 70 70 70 64 67 71 72 71 71 71 74 72 74 74 75 78 74 68
62 62 62 62 62 63 63 63 63 62 62 62 62 62 62 64 72 77 72 72 70 73 80 77 76 74 69 69 69 66 65 70 70 71 70 69 68 72 71 69 76 76 79 80 71
61 61 61 62 62 63 63 63 63 63 62 62 62 62 62 70 67 76 69 71 70 78 78 74 73 69 67 65 68 61 67 67 68 67 66 65 70 68 70 74 81 81 80 80 74
61 60 61 61 61 62 63 63 63 62 62 62 62 62 68 70 74 72 67 69 75 76 76 73 71 69 65 66 64 62 67 67 67 65 66 67 65 67 69 77 80 79 73 74 76
60 60 60 60 61 62 62 62 63 62 62 62 62 62 72 64 72 73 70 70 75 75 72 74 73 72 67 65 64 64 63 65 66 67 67 63 68 63 73 78 75 74 74 76 75
60 60 60 60 61 61 62 62 62 62 62 63 62 66 69 71 73 73 72 72 72 75 70 71 73 70 68 63 65 63 60 66 67 65 63 63 61 59 74 74 72 74 77 76 75
60 60 60 60 60 61 61 61 61 62 62 62 62 68 69 69 73 70 72 70 71 73 72 72 72 69 67 66 64 61 60 57 65 60 63 63 59 72 76 69 72 76 78 77 78
60 60 60 60 60 60 61 61 61 62 62 62 66 68 67 66 67 69 72 69 69 70 70 70 71 64 63 60 58 57 55 57 58 63 62 60 59 68 71 71 69 71 73 75 76
60 60 60 60 60 60 61 62 62 63 64 66 68 64 67 65 66 66 69 69 67 67 66 65 64 61 59 59 52 57 55 56 54 63 60 58 57 63 68 66 67 69 72 72 73
60 60 60 60 60 61 64 68 66 64 65 66 66 64 64 66 67 64 67 66 66 64 58 58 57 54 61 62 62 57 54 54 58 63 57 56 58 61 66 67 66 67 70 71 72
60 60 60 60 60 61 65 64 59 60 57 61 59 59 61 64 61 62 67 63 60 57 54 53 51 60 57 55 53 53 51 52 59 60 52 57 54 60 64 65 67 68 69 70 71
60 59 60 60 60 64 61 59 60 61 55 56 57 57 60 63 59 60 63 61 59 52 53 55 59 56 54 54 51 52 49 52 52 54 57 52 56 57 66 63 66 67 68 70 69
60 59 60 60 60 61 60 59 59 61 52 53 54 57 59 60 55 60 61 60 56 53 53 53 55 53 50 50 54 47 55 52 48 47 47 53 45 58 62 64 66 66 70 71 69
59 59 60 60 62 61 59 60 59 58 39 53 54 64 59 56 56 56 60 60 53 52 52 52 49 48 47 51 53 52 51 49 47 47 44 49 43 57 56 57 61 65 69 71 68
58 58 58 57 57 59 57 56 58 48 36 49 54 53 53 54 53 55 56 60 56 52 52 53 53 53 56 52 52 51 50 48 45 46 39 51 47 52 57 58 61 66 68 69 65
56 58 57 59 55 57 57 55 41 36 51 47 49 52 51 51 51 53 51 51 51 46 47 51 53 52 53 51 50 51 48 41 40 38 40 47 42 50 58 61 64 62 61 59 58
54 57 56 58 59 59 59 50 34 41 45 52 51 49 49 52 51 49 49 50 51 50 48 44 42 49 52 54 53 49 50 41 29 34 41 46 41 52 62 64 61 56 52 52 52
56 55 56 58 57 57 51 38 41 45 51 49 48 47 49 49 50 49 48 49 52 51 46 46 45 51 48 53 55 50 43 52 41 40 36 46 52 59 60 54 51 51 52 50 50
52 53 55 59 58 53 45 41 43 52 52 51 45 49 43 46 46 46 48 50 50 50 53 50 40 52 52 51 50 49 50 40 41 30 30 42 44 47 54 47 47 47 48 49 48
51 46 53 56 56 48 39 41 46 51 52 47 45 45 44 41 46 45 47 51 52 47 51 48 45 45 47 45 47 44 42 43 41 41 33 32 41 58 46 46 46 44 44 44 44
47 41 52 55 44 44 41 44 46 45 48 47 48 48 46 46 44 44 43 49 52 50 44 48 37 34 42 52 52 49 47 47 36 35 40 36 38 59 53 50 42 39 41 42 43
43 44 52 51 38 39 43 43 46 45 47 46 46 47 49 44 38 45 46 47 48 47 44 43 34 31 35 40 42 39 42 42 43 37 30 28 34 50 51 50 40 39 40 39 41
42 37 42 45 47 43 41 40 41 46 46 47 46 47 44 40 44 40 42 45 43 42 40 41 35 32 29 37 39 32 35 36 31 26 29 29 33 40 43 40 38 39 41 41 41
40 37 40 35 38 40 43 41 38 38 44 46 41 41 40 35 37 37 39 35 37 37 36 35 29 33 33 30 30 30 29 30 27 28 23 29 30 38 36 33 36 39 40 40 40
36 36 39 37 37 37 37 38 37 40 41 39 39 38 38 33 35 32 32 33 34 33 31 31 26 27 24 32 30 26 30 33 32 33 33 33 32 34 35 37 37 38 38 38 39
37 40 37 32 33 33 34 36 34 36 33 36 35 33 32 35 35 35 36 35 34 31 30 28 27 24 21 30 25 20 31 35 35 38 33 27 31 30 31 34 36 37 38 38 39
MSLP
1021.49 1021.27 1021.06 1020.92 1020.66 1020.49 1020.30 1020.11 1019.90 1019.66 1019.35 1019.11 1018.79 1018.58 1018.37 1018.17 1017.82 1017.60 1016.54 1015.49 1015.56 1016.03 1016.15 1016.39 1016.34 1016.32 1016.26 1016.19 1016.35 1016.21 1015.12 1013.96 1013.59 1013.68 1012.91 1013.42 1013.39 1013.48 1013.37 1012.95 1012.90 1012.66 1012.16 1012.40 1013.52
1021.46 1021.33 1021.11 1020.89 1020.72 1020.45 1020.30 1020.08 1019.82 1019.61 1019.32 1018.98 1018.74 1018.50 1018.33 1018.17 1017.64 1016.54 1015.30 1015.29 1015.49 1015.81 1015.85 1015.81 1015.96 1016.14 1015.94 1016.08 1016.20 1015.66 1014.92 1013.76 1013.55 1013.42 1013.24 1013.50 1013.48 1013.25 1013.15 1012.45 1011.97 1012.02 1012.21 1012.74 1013.47
1021.56 1021.34 1021.14 1020.84 1020.58 1020.30 1020.05 1019.86 1019.69 1019.43 1019.17 1018.92 1018.59 1018.39 1018.24 1018.06 1017.27 1015.48 1015.23 1015.43 1015.68 1015.83 1015.68 1015.80 1015.82 1015.91 1015.88 1016.09 1015.84 1015.68 1014.44 1013.88 1013.70 1013.74 1013.90 1013.70 1013.48 1013.34 1012.62 1011.42 1010.94 1010.92 1011.18 1011.64 1012.70
1021.54 1021.37 1021.11 1020.83 1020.45 1020.16 1019.87 1019.55 1019.35 1019.12 1018.93 1018.78 1018.59 1018.36 1018.05 1017.75 1016.82 1015.55 1015.42 1015.49 1015.84 1015.86 1015.84 1015.91 1015.92 1015.79 1015.63 1015.52 1015.58 1015.55 1014.49 1014.36 1014.04 1014.19 1014.31 1013.91 1013.42 1012.93 1012.44 1010.61 1010.56 1010.71 1010.87 1011.10 1011.63
1021.40 1021.27 1021.07 1020.76 1020.34 1019.94 1019.63 1019.35 1019.03 1018.78 1018.58 1018.42 1018.39 1018.24 1017.89 1017.25 1015.90 1015.58 1015.59 1015.81 1016.02 1016.04 1015.71 1015.73 1015.64 1015.69 1015.45 1015.50 1015.77 1015.41 1014.49 1014.45 1014.41 1014.45 1014.09 1014.00 1013.16 1012.83 1011.45 1010.33 1010.48 1010.38 1010.79 1010.57 1010.61
1021.25 1021.09 1020.91 1020.61 1020.20 1019.84 1019.43 1019.10 1018.80 1018.47 1018.18 1018.10 1018.13 1018.19 1017.70 1016.83 1015.63 1015.70 1015.81 1016.01 1015.87 1015.99 1015.96 1015.84 1015.50 1015.63 1015.57 1015.66 1015.75 1015.33 1015.02 1014.52 1014.32 1013.96 1013.81 1013.67 1012.33 1012.83 1010.09 1009.95 1010.03 1010.06 1010.01 1009.90 1009.89
1021.06 1020.89 1020.69 1020.43 1020.05 1019.67 1019.34 1018.90 1018.48 1018.11 1017.73 1017.65 1017.85 1017.86 1017.30 1015.94 1015.62 1015.83 1015.96 1016.05 1016.06 1015.82 1015.87 1016.04 1015.92 1015.89 1015.84 1015.65 1015.78 1015.49 1014.84 1013.93 1013.42 1013.42 1013.59 1013.39 1012.58 1011.42 1009.89 1010.04 1009.42 1009.28 1009.12 1009.29 1009.25
1020.87 1020.74 1020.50 1020.21 1019.92 1019.49 1019.11 1018.72 1018.31 1017.85 1017.57 1017.51 1017.75 1017.58 1016.58 1016.09 1015.99 1016.08 1016.02 1016.19 1016.32 1016.26 1016.19 1016.21 1016.26 1016.14 1016.02 1016.03 1015.66 1015.21 1014.86 1013.42 1012.82 1013.46 1013.37 1013.39 1011.15 1010.22 1009.89 1010.06 1009.21 1008.74 1008.26 1008.06 1007.71
1020.61 1020.50 1020.31 1020.00 1019.67 1019.22 1018.84 1018.45 1018.20 1017.94 1017.69 1017.78 1017.69 1017.30 1016.36 1016.35 1016.27 1016.15 1016.08 1016.05 1016.37 1016.50 1016.59 1016.60 1016.38 1016.37 1016.33 1015.76 1015.31 1014.88 1013.60 1013.09 1012.83 1012.87 1013.17 1013.14 1011.10 1010.43 1010.54 1009.81 1008.55 1008.28 1007.65 1007.35 1007.01
1020.37 1020.33 1020.19 1019.85 1019.49 1019.01 1018.58 1018.32 1018.17 1018.04 1017.88 1017.67 1017.42 1017.55 1016.25 1016.05 1016.15 1016.30 1016.33 1016.28 1016.39 1016.58 1016.74 1016.68 1016.58 1016.23 1016.16 1015.58 1014.08 1013.54 1013.48 1013.07 1012.95 1012.59 1012.88 1012.52 1011.36 1010.89 1009.92 1010.08 1008.04 1007.15 1006.56 1007.31 1006.88
1020.15 1020.14 1019.99 1019.75 1019.36 1018.87 1018.29 1018.28 1018.46 1018.18 1017.56 1016.96 1016.68 1016.21 1016.10 1016.25 1016.30 1016.40 1016.34 1016.31 1016.40 1016.62 1016.39 1016.88 1016.37 1015.37 1014.56 1014.47 1014.31 1014.40 1013.96 1013.24 1012.78 1012.61 1012.43 1011.87 1011.04 1010.43 1009.29 1008.56 1007.72 1006.74 1006.94 1006.92 1006.64
1019.87 1019.91 1019.86 1019.63 1019.31 1018.84 1018.48 1018.56 1019.18 1019.49 1018.02 1016.68 1016.64 1016.68 1016.54 1016.48 1016.47 1016.55 1016.66 1016.43 1016.33 1016.17 1016.82 1017.10 1015.83 1015.07 1015.27 1015.24 1015.25 1014.85 1014.42 1013.65 1012.79 1012.58 1012.89 1011.16 1010.34 1009.66 1008.44 1007.70 1006.76 1006.87 1006.84 1006.56 1006.58
1019.57 1019.65 1019.70 1019.55 1019.29 1018.98 1019.02 1019.39 1019.47 1019.44 1018.76 1016.95 1016.75 1016.61 1016.56 1016.59 1016.45 1016.66 1016.81 1016.39 1016.17 1016.35 1016.32 1015.77 1015.13 1015.42 1015.63 1015.60 1015.53 1015.24 1014.80 1013.99 1013.57 1013.29 1012.42 1011.64 1009.14 1008.78 1007.77 1007.14 1006.64 1006.99 1006.83 1006.87 1007.08
1019.19 1019.35 1019.49 1019.51 1019.63 1019.23 1019.22 1019.58 1019.74 1019.67 1018.44 1017.03 1016.72 1016.58 1016.62 1016.50 1016.80 1017.00 1016.97 1016.96 1016.74 1016.37 1016.46 1016.11 1015.86 1015.95 1015.99 1015.68 1015.52 1015.20 1014.86 1014.69 1014.46 1014.04 1012.53 1012.40 1008.40 1007.86 1007.03 1006.58 1006.53 1006.93 1006.78 1007.19 1007.38
1018.72 1018.93 1019.15 1019.34 1019.10 1019.28 1019.28 1019.33 1019.63 1019.74 1017.96 1016.79 1016.48 1016.42 1016.47 1016.61 1016.92 1017.10 1017.13 1016.62 1016.47 1016.61 1016.86 1015.78 1016.00 1016.05 1015.92 1015.70 1015.64 1015.25 1015.42 1015.28 1014.86 1014.20 1013.47 1011.70 1010.62 1007.01 1006.97 1006.75 1006.56 1006.71 1006.89 1007.44 1008.26
1018.22 1018.38 1018.69 1019.22 1019.22 1018.84 1019.02 1019.20 1019.60 1019.17 1017.04 1016.36 1016.29 1016.33 1016.34 1016.58 1016.86 1017.05 1017.07 1016.88 1017.06 1016.61 1016.64 1016.03 1016.30 1016.04 1015.50 1015.64 1015.91 1015.80 1015.59 1015.33 1014.96 1014.24 1012.41 1010.47 1010.04 1006.93 1006.83 1006.80 1007.10 1007.23 1007.74 1008.36 1009.49
1018.24 1018.18 1018.67 1018.59 1018.84 1018.93 1018.76 1019.31 1019.36 1017.76 1016.48 1016.34 1016.13 1016.12 1016.02 1016.16 1016.50 1016.67 1016.80 1016.71 1016.35 1016.28 1015.87 1015.70 1015.47 1015.34 1015.45 1015.60 1015.91 1015.68 1015.44 1014.61 1013.76 1013.27 1010.84 1010.51 1009.76 1008.20 1007.81 1007.41 1007.51 1008.16 1008.52 1009.76 1010.72
1018.16 1018.28 1018.39 1018.29 1018.71 1018.78 1018.80 1018.98 1018.47 1017.30 1016.42 1016.00 1015.91 1016.10 1016.04 1016.01 1016.14 1016.50 1016.48 1016.13 1016.12 1015.89 1015.56 1015.30 1014.76 1015.04 1015.16 1014.76 1014.47 1014.89 1014.99 1014.77 1013.79 1012.31 1010.42 1010.24 1006.74 1006.77 1007.37 1007.94 1009.13 1010.52 1011.48 1012.00 1012.49
1018.56 1018.44 1018.48 1018.20 1018.63 1018.76 1018.77 1018.06 1016.67 1016.31 1015.83 1015.88 1016.00 1015.70 1015.50 1015.87 1016.08 1016.26 1016.07 1015.53 1015.36 1015.71 1015.76 1014.90 1013.85 1014.46 1014.72 1014.44 1014.61 1014.41 1014.75 1013.93 1013.50 1012.28 1011.48 1008.36 1006.23 1006.82 1007.13 1009.55 1010.88 1011.97 1012.38 1013.25 1013.94
1018.46 1018.62 1018.10 1017.81 1018.60 1018.94 1018.52 1017.26 1016.55 1015.69 1015.48 1015.58 1015.75 1015.53 1015.60 1016.11 1016.34 1016.71 1016.13 1015.83 1015.62 1015.66 1015.74 1015.02 1014.39 1014.18 1014.18 1014.74 1015.04 1014.94 1014.72 1014.38 1014.32 1012.91 1010.92 1007.47 1007.33 1007.12 1008.19 1010.64 1012.26 1013.40 1014.11 1014.26 1015.02
1018.89 1019.00 1018.24 1017.82 1018.21 1018.74 1018.12 1017.30 1016.49 1015.90 1015.67 1015.85 1015.52 1015.57 1015.95 1016.38 1016.48 1016.60 1015.99 1015.96 1016.06 1016.54 1016.78 1016.43 1016.03 1014.23 1014.87 1014.91 1014.36 1014.98 1014.88 1014.63 1014.01 1013.05 1011.42 1010.02 1007.11 1007.55 1010.21 1012.02 1013.09 1014.50 1015.58 1015.95 1016.31
1018.95 1019.05 1018.49 1017.99 1018.39 1017.82 1017.43 1017.12 1016.80 1016.47 1016.55 1016.20 1015.96 1015.93 1015.87 1016.26 1016.28 1016.55 1016.21 1016.53 1016.86 1017.05 1017.04 1017.22 1017.49 1015.82 1014.83 1014.27 1014.25 1014.75 1014.28 1014.13 1013.96 1012.31 1011.49 1010.67 1008.65 1008.86 1010.82 1013.00 1015.12 1016.11 1016.31 1016.88 1017.15
1018.64 1018.82 1018.67 1018.27 1017.68 1017.53 1017.45 1017.32 1017.17 1016.72 1016.66 1016.81 1016.64 1016.78 1016.77 1016.65 1016.69 1016.31 1016.71 1017.20 1017.74 1018.04 1018.05 1018.33 1017.84 1016.77 1015.00 1015.58 1015.74 1015.60 1015.28 1015.12 1014.48 1014.15 1012.63 1012.04 1010.34 1011.10 1011.36 1013.27 1015.67 1016.46 1016.89 1017.28 1017.71
1018.80 1019.04 1019.19 1018.55 1017.73 1017.41 1017.53 1017.54 1017.56 1017.50 1016.93 1016.63 1017.03 1017.18 1017.68 1017.58 1017.79 1017.11 1017.28 1017.89 1018.65 1019.09 1019.55 1019.64 1018.49 1017.90 1017.07 1015.80 1016.63 1017.31 1016.83 1016.64 1016.44 1015.68 1014.65 1013.65 1013.10 1013.44 1013.96 1014.72 1016.14 1017.01 1017.22 1017.33 1017.36
1018.91 1019.03 1018.57 1018.47 1017.66 1017.78 1017.99 1017.71 1017.28 1018.09 1017.93 1017.14 1017.56 1017.85 1018.30 1018.24 1018.11 1018.52 1018.92 1019.81 1020.29 1020.50 1020.87 1020.95 1020.21 1019.43 1018.62 1018.81 1018.46 1018.22 1017.78 1017.37 1017.52 1017.13 1016.65 1015.29 1014.92 1014.88 1015.70 1016.54 1016.77 1016.91 1017.22 1017.14 1017.04
1019.42 1019.37 1019.61 1019.20 1018.22 1018.48 1018.38 1017.88 1018.07 1018.65 1019.05 1018.47 1018.47 1018.93 1019.53 1019.58 1019.67 1020.10 1020.52 1021.03 1021.10 1021.52 1021.96 1022.26 1021.37 1021.00 1019.88 1019.72 1019.59 1019.03 1018.53 1017.82 1017.22 1016.80 1016.25 1016.02 1015.64 1016.83 1017.53 1017.59 1017.52 1017.28 1016.85 1016.46 1016.44
1020.17 1020.04 1019.46 1019.52 1019.34 1019.26 1018.66 1018.76 1019.23 1019.45 1020.51 1020.26 1020.12 1020.31 1020.47 1020.96 1021.21 1021.33 1021.69 1022.15 1022.21 1022.11 1022.25 1022.51 1022.06 1021.73 1020.34 1020.24 1020.15 1018.83 1016.96 1016.43 1016.21 1015.93 1016.28 1016.55 1016.97 1017.86 1018.05 1018.19 1017.96 1017.58 1017.26 1016.64 1016.07
Wind_Speed
7 8 8 8 8 8 8 9 9 9 8 9 10 9 9 9 6 3 6 2 4 13 7 8 3 3 2 3 2 1 4 5 4 6 2 3 4 4 1 7 5 8 7 3 6
5 6 6 7 7 7 8 8 8 8 8 8 10 10 9 8 3 7 2 3 9 13 9 11 7 5 3 3 3 5 4 5 3 5 5 2 6 8 6 10 14 12 14 8 6
4 5 6 6 7 8 8 9 8 8 8 8 9 9 9 5 5 1 4 7 11 6 4 3 6 4 4 2 5 4 7 4 6 9 6 6 7 5 8 14 15 14 9 8 11
4 5 6 7 8 9 10 10 10 9 9 9 9 9 9 3 6 1 5 8 10 6 8 7 6 5 5 7 5 6 12 9 4 2 3 6 5 8 13 25 18 16 16 13 12
4 5 6 8 9 10 11 12 11 10 10 9 8 8 3 2 7 2 6 9 8 6 7 7 7 5 7 4 4 10 8 7 8 9 11 9 16 14 21 27 20 17 15 16 15
4 5 7 8 10 12 12 12 12 11 10 9 7 7 3 8 3 4 7 6 7 7 6 6 5 5 3 5 8 4 7 12 9 15 12 10 20 2 15 14 13 13 15 14 14
6 6 7 9 11 13 13 13 13 10 8 5 5 3 3 11 2 5 4 1 3 5 5 3 4 5 3 3 2 5 13 15 13 8 8 4 9 13 20 9 16 15 12 11 13
6 7 8 9 11 14 14 13 11 6 4 5 5 3 7 2 3 4 3 3 3 2 1 1 4 1 3 0 3 6 5 9 1 5 1 5 16 16 8 4 15 21 22 20 23
7 7 8 10 11 14 15 13 1 6 7 8 3 2 6 2 2 2 1 4 5 3 5 4 2 1 3 6 7 5 11 12 11 7 1 8 14 9 9 20 26 23 23 21 22
7 8 9 10 11 14 16 3 3 2 2 2 2 2 3 1 2 3 2 6 3 7 4 2 2 5 3 7 11 15 11 10 10 8 6 14 22 22 24 19 26 26 22 16 18
7 8 8 10 11 12 7 2 3 3 1 4 2 4 1 2 1 1 1 5 4 2 8 2 7 11 17 17 14 10 14 18 18 17 19 15 19 19 23 22 24 24 18 14 14
7 8 8 9 11 11 2 3 2 3 7 4 6 7 1 2 2 2 3 7 6 8 6 4 12 17 4 4 8 13 14 18 15 11 4 16 20 23 22 21 17 15 13 12 11
8 7 8 8 10 2 2 2 3 1 5 5 1 2 1 4 5 4 5 4 5 8 12 16 8 0 9 11 12 11 13 17 15 13 13 12 14 4 7 9 12 3 8 8 8
9 8 8 7 3 0 2 4 3 2 6 3 2 1 2 2 2 1 0 1 2 8 6 10 3 6 4 11 12 14 6 13 10 5 9 7 13 8 8 14 10 4 6 7 8
9 9 9 7 1 3 4 6 4 3 9 2 2 2 1 1 3 3 1 2 4 4 5 2 3 4 6 5 8 3 2 2 3 8 7 7 8 2 2 3 3 1 6 10 10
9 8 7 1 2 2 7 6 3 5 9 3 2 2 3 1 1 1 1 3 2 3 3 7 0 3 3 2 4 1 3 3 1 4 8 3 8 2 3 3 1 10 6 13 13
1 9 8 3 2 5 5 2 2 6 2 3 3 2 3 3 3 2 3 4 3 3 3 3 9 2 3 5 3 4 3 7 6 5 11 3 7 7 6 10 7 13 20 21 19
2 4 3 0 4 7 3 2 7 1 4 1 3 1 2 3 3 2 3 6 7 4 8 8 12 8 7 9 5 7 8 7 8 13 20 4 16 6 9 0 10 16 15 16 18
3 2 2 4 5 1 2 7 6 8 6 4 3 6 8 2 3 3 4 10 5 11 10 11 17 3 7 3 1 1 9 11 14 15 11 15 24 14 10 10 14 12 13 14 13
2 1 3 5 6 1 5 12 6 5 4 3 7 5 4 3 3 2 6 1 3 4 3 5 14 8 4 1 2 10 2 6 5 8 20 20 19 12 12 7 8 11 14 14 13
1 2 1 4 4 4 4 5 4 3 4 4 7 7 5 3 9 12 11 9 5 2 4 4 7 14 4 7 14 6 8 8 5 10 18 20 18 13 12 9 10 8 8 10 11
2 3 1 3 5 3 9 4 2 1 3 2 2 7 14 11 14 16 18 16 3 4 6 4 3 11 19 14 8 8 16 18 13 17 14 17 21 19 10 9 8 5 6 7 8
4 1 1 2 7 9 2 3 4 6 7 3 7 6 4 6 6 11 14 1 5 3 4 3 5 5 9 6 2 6 9 13 15 8 20 20 15 8 18 19 9 8 6 4 4
3 4 2 4 2 6 8 7 8 5 8 8 8 9 9 12 11 9 9 3 3 3 7 5 5 10 13 19 7 7 8 7 3 4 9 12 18 20 21 17 11 9 9 8 7
1 3 1 6 6 7 7 2 5 5 5 7 3 9 10 6 3 6 1 3 3 6 3 2 9 10 12 11 8 10 11 15 15 15 10 16 21 23 10 8 12 13 11 12 11
3 3 1 2 3 6 8 7 17 14 8 6 10 1 2 6 5 6 1 3 5 3 2 1 2 3 6 10 12 14 20 22 21 22 26 25 23 4 2 6 10 13 16 18 16
1 1 0 2 4 6 5 5 4 8 2 3 0 1 2 3 3 2 3 4 4 4 4 4 3 3 9 11 13 14 16 18 16 18 11 11 6 2 1 7 11 14 15 19 18
Wind_Direction
44 44 43 38 34 23 17 9 1 353 346 335 332 332 334 337 311 192 239 198 178 158 121 136 138 124 149 114 114 205 236 249 251 192 217 157 251 179 311 262 219 204 254 357 117
41 32 29 24 13 9 359 353 351 341 333 328 321 322 327 334 271 252 264 179 150 159 149 170 167 162 156 153 165 223 240 258 245 222 268 254 240 288 260 254 255 247 247 224 185
11 11 6 1 353 347 344 339 335 327 320 317 311 315 319 308 279 224 28 170 160 169 150 135 136 173 207 215 186 175 243 242 242 246 258 272 257 240 264 271 256 270 272 241 223
351 349 346 342 339 335 333 331 328 319 310 306 306 312 312 241 298 70 319 168 152 160 134 142 159 184 218 216 181 237 246 239 271 233 242 258 292 259 245 262 282 288 280 273 241
324 329 327 325 324 323 324 324 323 313 299 296 297 311 265 191 248 80 87 125 144 167 183 175 182 189 231 222 195 241 262 254 256 269 260 268 260 268 269 266 280 276 269 264 255
301 314 319 317 314 315 318 320 319 310 299 281 273 293 200 253 71 126 127 142 163 177 173 181 225 210 255 235 224 360 285 279 278 263 257 250 270 184 261 275 279 277 271 268 265
298 311 317 317 314 314 315 318 319 312 307 262 220 237 232 261 81 132 139 142 169 182 172 204 170 206 151 241 290 308 298 294 253 264 233 210 253 231 258 292 288 286 277 272 269
287 300 307 311 314 313 316 318 314 322 17 141 167 215 257 27 135 143 148 90 99 74 10 135 173 196 248 62 251 270 261 288 87 167 180 219 276 286 319 301 291 292 287 284 282
272 286 300 310 316 313 321 321 266 60 103 129 162 235 260 153 204 88 215 144 119 90 63 99 150 231 176 238 270 218 270 259 296 199 252 227 292 284 289 301 288 285 280 283 292
269 286 300 310 317 318 328 292 196 155 149 222 95 226 175 231 122 107 49 137 126 132 119 143 138 222 204 215 256 286 263 253 266 288 252 279 275 285 287 277 278 281 282 294 289
266 280 294 309 316 326 343 243 242 209 191 246 215 271 273 72 155 89 177 129 120 163 193 144 212 213 238 232 272 290 281 281 277 284 295 272 282 282 282 279 273 276 298 293 289
255 273 290 308 316 327 319 47 60 12 292 260 275 291 285 315 290 161 183 188 181 203 137 169 233 237 326 261 242 257 273 277 283 284 282 298 295 278 273 269 268 283 293 291 309
246 260 277 295 313 324 40 99 121 187 259 290 300 255 345 200 231 202 212 170 207 184 201 242 267 170 222 250 254 252 263 276 275 321 282 310 280 261 267 260 270 304 271 310 333
235 244 257 282 258 172 126 133 175 274 263 223 183 121 133 158 142 330 348 307 183 256 212 254 303 233 195 247 240 272 297 264 276 292 296 8 294 298 261 270 290 314 297 19 13
227 231 228 218 134 225 137 142 153 238 275 102 132 73 125 206 108 58 304 177 205 182 206 230 173 168 200 238 181 276 358 294 267 275 307 221 260 77 288 305 302 201 16 18 15
202 205 165 173 299 167 153 128 218 205 241 151 122 133 153 62 94 105 100 64 24 193 247 268 272 234 243 128 194 135 285 263 232 274 256 286 231 79 98 135 257 321 337 2 29
42 182 166 165 215 153 128 166 292 222 89 144 133 181 129 157 125 156 158 183 205 287 245 246 248 213 208 242 162 182 290 305 265 224 266 120 245 265 268 240 347 354 19 28 36
90 157 207 341 153 158 171 152 228 246 285 207 155 104 252 168 157 177 168 241 221 229 285 283 283 188 167 218 205 209 252 246 278 276 285 244 258 273 222 210 49 63 54 40 37
197 106 212 182 158 205 180 214 218 181 194 199 153 233 237 191 250 243 261 277 262 196 246 279 261 190 220 149 196 208 230 261 267 269 278 259 267 265 232 75 52 45 44 41 36
127 227 224 150 154 214 219 237 223 202 163 173 236 207 200 189 240 275 267 128 268 224 266 264 283 238 204 196 193 232 8 234 218 256 252 269 276 261 271 69 23 19 8 14 14
147 220 138 131 130 209 239 241 221 251 154 175 203 218 218 198 251 268 265 275 250 85 14 326 258 264 202 214 245 215 231 227 275 245 254 265 267 272 77 58 3 27 16 16 19
155 219 332 164 194 198 231 197 94 141 348 333 249 246 251 260 271 265 258 250 115 135 262 215 248 266 268 269 249 272 257 247 243 249 236 255 254 285 30 32 49 1 28 47 32
168 221 335 262 211 212 208 256 247 202 214 214 251 231 261 248 253 238 247 321 18 271 272 174 232 274 276 206 101 235 269 274 277 291 248 258 266 338 322 336 44 19 18 7 338
136 174 229 229 235 216 214 240 236 205 216 201 243 231 255 259 247 265 260 171 75 29 30 341 233 231 258 281 341 252 265 240 248 270 300 267 285 286 302 328 348 350 343 333 313
143 214 300 194 212 209 208 197 195 215 246 184 225 230 244 257 244 235 269 62 71 7 48 338 262 277 283 323 307 284 270 270 274 272 267 288 282 281 347 343 328 325 327 326 313
161 170 140 128 98 178 190 226 244 242 251 232 249 305 255 237 253 286 356 195 275 83 115 213 258 310 282 265 261 281 278 270 271 265 261 264 276 74 349 337 333 327 325 321 314
176 100 360 116 157 167 202 203 157 137 62 4 44 103 238 223 120 144 212 230 229 210 204 234 256 236 259 303 317 278 267 277 278 273 290 275 308 137 277 327 322 320 313 310 305